Location: Spruce Knob
(38.6995°N, 79.5330°W)
Time: 15:08:08
(UTC-05:00)

FO-29 - Pass Details

Date: 29 November 2023
Orbit: 799 x 1322 km, 98.6° (Epoch: 27 February)

Event Time Altitude Azimuth Distance (km) Brightness Sun altitude
Rises 04:28:38 0° 3° (N) 4,072 12.7 -31.9°
Reaches altitude 10° 04:31:26 10° 355° (N) 3,170 12.1 -31.4°
Enters shadow 04:31:55 12° 353° (N) 3,023 11.9 -31.3°
